Overview Statistics Trail Chart Weather Telemetry Raw packets
 

This is the latest recevied weather packets stored in our database for station/object N1ORT. If no packets are shown the sender has not sent any weather packets the latest 10 day(s).

<< 1 2 3 4 5 6 >>
Time Temp. Humidity Pressure Rain* Wind** Luminosity Snow
1788617856 20.56° C 82% 1009.1 hPa 0 mm - 213 W/m² -
1788617552 20.56° C 82% 1009.1 hPa 0 mm - 285 W/m² -
1788617247 20.56° C 82% 1009 hPa 0 mm - 191 W/m² -
1788616947 20.56° C 82% 1009 hPa 0 mm - 180 W/m² -
1788616641 20.56° C 84% 1009.3 hPa 0 mm - 240 W/m² -
1788616337 20.56° C 82% 1009.1 hPa 0 mm - 268 W/m² -
1788616036 20.56° C 82% 1009.2 hPa 0 mm - 225 W/m² -
1788615735 20.56° C 82% 1008.6 hPa 0 mm - 308 W/m² -
1788615431 20° C 83% 1008.8 hPa 0 mm - 382 W/m² -
1788615131 20° C 84% 1008.8 hPa 0 mm - 288 W/m² -
1788614830 20° C 85% 1008.6 hPa 0 mm - 272 W/m² -
1788614526 20° C 85% 1008.7 hPa 0 mm - 465 W/m² -
1788614220 19.44° C 87% 1008.8 hPa 0 mm - 524 W/m² -
1788613915 19.44° C 88% 1008.7 hPa 0 mm - 240 W/m² -
1788613610 18.89° C 88% 1008.6 hPa 0 mm - 179 W/m² -
1788613310 18.89° C 89% 1008.6 hPa 0 mm - 166 W/m² -
1788612999 18.89° C 90% 1008.6 hPa 0 mm - 172 W/m² -
1788612695 18.89° C 89% 1008.8 hPa 0 mm - 183 W/m² -
1788612391 18.33° C 90% 1008.7 hPa 0 mm - 169 W/m² -
1788612087 18.33° C 90% 1008.8 hPa 0 mm - 185 W/m² -
1788611781 18.33° C 91% 1008.6 hPa 0 mm - 146 W/m² -
1788611479 18.33° C 92% 1008.3 hPa 0 mm - 151 W/m² -
1788611172 17.78° C 93% 1008.4 hPa 0 mm - 135 W/m² -
1788610867 17.78° C 93% 1008.6 hPa 0 mm - 103 W/m² -
1788610562 17.78° C 93% 1008.5 hPa 0 mm - 103 W/m² -

* Rain latest hour (hover to see other rain measurements)
** Current wind speed in m/s (hover to see current wind gust speed)